Home   Weather   Mesa   Past weeks

Flag for USA Past Weather in Mesa, Arizona, USA — Yesterday and Last 2 Weeks

Now
73 °F

Partly sunny.


Feels Like: 76 °F
Forecast: 63 / 90 °F
Wind: 6 mph from Southeast

Location: Phoenix–Mesa Gateway Airport

Current Time: Apr 27, 2017 at 9:39:32 am

Latest Report: Apr 27, 2017 at 8:47 am


Visibility: 35 mi

Pressure: 29.72 "Hg

Humidity: 25%

Dew Point: 36 °F

Location of MesaLocation

Past Weather in Mesa — Graph

°F

Mesa Temperature Yesterday

Maximum temperature yesterday: 88 °F (at 4:47 pm)
Minimum temperature yesterday: 61 °F (at 3:35 am)
Average temperature yesterday: 70 °F

High & Low Weather Summary for the Past Weeks

 TemperatureHumidityPressure
High97 °F (Apr 23, 3:47 pm)43% (Apr 25, 7:50 am)30.03 "Hg (Apr 25, 7:50 am)
Low54 °F (Apr 16, 4:35 am)6% (Apr 20, 6:47 pm)29.63 "Hg (Apr 24, 6:47 pm)
Average71 °F21%29.86 "Hg
* Reported Apr 12 8:47 am — Apr 27 7:53 am, Mesa, Weather by CustomWeather, © 2017

Note: Actual official high and low records may vary slightly from our data, if they occured in-between our weather recording intervals... More about our weather records

Advertising

Mesa Weather History for the Previous 24 Hours

Scroll right to see more
 ConditionsComfort  
Time TempWeatherWind HumidityBarometerVisibility
7:53 am
Thu, Apr 27
70 °FPartly sunny.8 mph27%29.72 "Hg30 mi
6:53 am64 °FOvercast.6 mph30%29.71 "Hg30 mi
5:47 am64 °FPartly sunny.8 mph30%29.68 "Hg20 mi
4:50 am64 °FClear.8 mph34%29.70 "Hg20 mi
4:35 am63 °FClear.8 mph34%29.70 "Hg10 mi
3:55 am64 °FClear.8 mph32%29.70 "Hg10 mi
3:35 am63 °FClear.7 mph32%29.70 "Hg10 mi
3:15 am64 °FClear.7 mph30%29.70 "Hg10 mi
2:55 am66 °FClear.8 mph26%29.70 "Hg10 mi
2:35 am68 °FClear.6 mph26%29.71 "Hg10 mi
2:15 am70 °FClear.No wind29%29.70 "Hg10 mi
1:55 am72 °FClear.10 mph27%29.70 "Hg10 mi
1:35 am70 °FClear.9 mph29%29.70 "Hg10 mi
1:15 am70 °FClear.7 mph29%29.71 "Hg10 mi
12:55 am70 °FClear.10 mph27%29.71 "Hg10 mi
12:35 am72 °FClear.7 mph25%29.73 "Hg10 mi
12:15 am73 °FClear.9 mph23%29.72 "Hg10 mi
11:47 pm
Wed, Apr 26
75 °FPassing clouds.13 mph18%29.70 "Hg20 mi
10:47 pm73 °FPassing clouds.10 mph19%29.71 "Hg20 mi
9:48 pm75 °FPassing clouds.7 mph16%29.74 "Hg20 mi
8:47 pm77 °FPassing clouds.6 mph17%29.74 "Hg20 mi
7:54 pm81 °FPassing clouds.7 mph14%29.73 "Hg20 mi
5:47 pm84 °FScattered clouds.10 mph11%29.72 "Hg45 mi
4:47 pm88 °FScattered clouds.12 mph9%29.74 "Hg45 mi
2:51 pm82 °FPassing clouds.14 mph10%29.78 "Hg30 mi
1:50 pm82 °FPassing clouds.9 mph9%29.82 "Hg30 mi
12:53 pm81 °FPassing clouds.10 mph11%29.84 "Hg45 mi
10:50 am75 °FPassing clouds.No wind13%29.87 "Hg45 mi
Weather by CustomWeather, © 2017

See weather overviewHow to use our weather pages